Regional Weather Roundup
Issued by NWS Little Rock, AR

Home | Current Version | Previous Version | Graphics & Text | Print | Product List | Glossary On
Versions: 1 2 3 4 5 6 7 8 9 10 11 12 13 14 15 16 17 18 19 20 21 22 23 24 25 26 27 28 29 30 31 32 33 34 35 36 37 38 39 40 41 42 43 44 45 46 47 48 49
000
ASUS44 KLZK 212105
RWRLZK

WEATHER ROUNDUP FOR ARKANSAS
NATIONAL WEATHER SERVICE LITTLE ROCK AR
400 PM CDT SUN SEP 21 2014

NOTE: "FAIR" INDICATES FEW OR NO CLOUDS BELOW 12,000 FEET WITH NO
SIGNIFICANT WEATHER AND/OR OBSTRUCTIONS TO VISIBILITY.

ARZ001-003-010-029-212200-
NORTHWEST ARKANSAS

CITY           SKY/WX    TMP DP  RH WIND       PRES   REMARKS
FAYETTEVILLE   SUNNY     80  54  40 N9        30.11S
FORT SMITH     MOSUNNY   80  71  74 W6        30.05F
HARRISON       SUNNY     80  52  37 VRB6      30.10S
BENTONVILLE    SUNNY     79  48  34 N10       30.13F
ROGERS         SUNNY     78  48  34 N8        30.13F
SILOAM SPGS    SUNNY     79  52  38 NE8       30.13S
HIGHFILL       SUNNY     80  50  34 N12       30.12S
SPRINGDALE     SUNNY     79  50  36 N13       30.14S
$$

ARZ004-005-016-212200-
NORTH CENTRAL ARKANSAS

CITY           SKY/WX    TMP DP  RH WIND       PRES   REMARKS
BATESVILLE     MOSUNNY   88  64  45 NW7G16    30.00S HX  89
FLIPPIN        SUNNY     82  46  28 N10       30.07S
MTN HOME       SUNNY     82  49  31 VRB5      30.06S
$$

ARZ040-041-212200-
WEST CENTRAL ARKANSAS

CITY           SKY/WX    TMP DP  RH WIND       PRES   REMARKS
MENA           PTSUNNY   82  70  65 N3        30.07F HX  86
MOUNT IDA      PTSUNNY   81  69  67 VRB5      30.03F
$$

ARZ009-017-025-026-028-212200-
NORTHEAST ARKANSAS

CITY           SKY/WX    TMP DP  RH WIND       PRES   REMARKS
CORNING        LGT RAIN  82  48  30 N12       30.01S
JONESBORO      MOSUNNY   87  63  44 N8        29.98S HX  88
NEWPORT        PTSUNNY   88  67  49 N13       29.99F HX  91
WALNUT RIDGE   SUNNY     84  57  39 NW14      29.99S
BLYTHEVILLE    PTSUNNY   86  68  54 N13       29.97S HX  89
$$

ARZ022-023-033-042-044-212200-
CENTRAL ARKANSAS

CITY           SKY/WX    TMP DP  RH WIND       PRES   REMARKS
LITTLE ROCK    CLOUDY    83  68  60 NW15      30.01F HX  86
N LITTLE ROCK  PTSUNNY   80  72  76 NW6       30.01F HX  85
JACKSONVILLE   CLOUDY    83  71  68 NW7       30.00F HX  87
SEARCY         PTSUNNY   86  70  58 VRB5      30.00F HX  90
HOT SPRINGS    PTSUNNY   84  69  60 NW10      30.02F HX  88
RUSSELLVILLE   PTSUNNY   81  72  74 NW5       30.03F HX  85
CLINTON        FAIR      86  68  54 NW9       30.03S HX  89
$$

ARZ036-212200-
EAST ARKANSAS

CITY           SKY/WX    TMP DP  RH WIND       PRES   REMARKS
WEST MEMPHIS   PTSUNNY   88  70  55 N9        29.95F HX  93
$$

ARZ050-053-066-070-073-212200-
SOUTHWEST ARKANSAS

CITY           SKY/WX    TMP DP  RH WIND       PRES   REMARKS
ARKADELPHIA    FAIR      90  71  53 NW9       30.01F HX  96
CAMDEN         MOSUNNY   93  66  40 W6        29.99F HX  96
TEXARKANA      SUNNY     91  67  44 N7        30.01F HX  94
EL DORADO      SUNNY     91  67  44 W7        30.00F HX  94
DE QUEEN       SUNNY     86  69  56 CALM      30.00F HX  90
$$

ARZ056-057-069-212200-
SOUTHEAST ARKANSAS

CITY           SKY/WX    TMP DP  RH WIND       PRES   REMARKS
PINE BLUFF     PTSUNNY   88  67  49 NW12      30.00S HX  91
STUTTGART      PTSUNNY   88  70  55 NW10G16   30.00S HX  92
MONTICELLO     MOSUNNY   90  63  40 W8        29.98F HX  91

$$




USA.gov is the U.S. government's official web portal to all federal, state and local government web resources and services.